{"data":{"norad_id":52098,"epoch":"2026-09-19T15:23:01.209408Z","epoch_age_seconds":129670,"freshness":"FRESH","line1":"1 52098U 22029L   26262.64098622  .00000029  00000+0  12002-4 0  9993","line2":"2 52098  53.1612 286.0792 0001530  59.6788 300.4366 15.34389167250107","mean_motion":15.34389167,"eccentricity":0.000153,"inclination_deg":53.1612,"raan_deg":286.0792,"arg_perigee_deg":59.6788,"mean_anomaly_deg":300.4366,"bstar":1.2002e-5,"rev_number":25010,"period_min":93.848420659503,"perigee_km":461.68878487242,"apogee_km":463.78209183856,"semimajor_km":6840.8724383555,"source":"CELESTRAK","updated_at":"2026-09-20T09:00:39.985295Z"}}